Date,TemperatureHighF,TemperatureAvgF,TemperatureLowF,DewpointHighF,DewpointAvgF,DewpointLowF,HumidityHigh,HumidityAvg,HumidityLow,PressureMaxIn,PressureMinIn,WindSpeedMaxMPH,WindSpeedAvgMPH,GustSpeedMaxMPH,PrecipitationSumIn
2013-1-1,50,44,39,-100,-100,-100,0,0,100,0.00,40.00,0,-999,0,0.00
2013-1-2,36,35,33,-100,-100,-100,0,0,100,0.00,40.00,0,-999,0,0.00
2013-1-3,47,36,25,-100,-100,-100,0,0,100,0.00,40.00,0,-999,0,0.00
2013-1-4,48,42,38,-100,-100,-100,0,0,100,0.00,40.00,0,-999,0,0.00
2013-1-5,43,40,38,-100,-100,-100,0,0,100,0.00,40.00,0,-999,0,0.00
2013-1-6,53,40,33,-100,-100,-100,0,0,100,0.00,40.00,0,-999,0,0.00
2013-1-7,52,37,27,-100,-100,-100,0,0,100,0.00,40.00,0,-999,0,0.00
2013-1-8,55,49,40,-100,-100,-100,0,0,100,0.00,40.00,0,-999,0,0.00
2013-1-9,60,58,55,-100,-100,-100,0,0,100,0.00,40.00,0,-999,0,0.00
2013-1-10,64,57,43,-100,-100,-100,0,0,100,0.00,40.00,0,-999,0,0.00
2013-1-11,67,52,36,-100,-100,-100,0,0,100,0.00,40.00,0,-999,0,0.00
2013-1-12,69,65,59,-100,-100,-100,0,0,100,0.00,40.00,0,-999,0,0.00
2013-1-13,46,38,34,-100,-100,-100,0,0,100,0.00,40.00,0,-999,0,0.00
2013-1-14,36,32,30,-100,-100,-100,0,0,100,0.00,40.00,0,-999,0,0.00
2013-1-15,30,29,28,-100,-100,-100,0,0,100,0.00,40.00,0,-999,0,0.00
2013-1-16,43,35,29,-100,-100,-100,0,0,100,0.00,40.00,0,-999,0,0.00
2013-1-17,56,39,21,-100,-100,-100,0,0,100,0.00,40.00,0,-999,0,0.00
2013-1-18,58,40,29,-100,-100,-100,0,0,100,0.00,40.00,0,-999,0,0.00
2013-1-19,57,39,29,-100,-100,-100,0,0,100,0.00,40.00,0,-999,0,0.00
2013-1-20,63,44,32,-100,-100,-100,0,0,100,0.00,40.00,0,-999,0,0.00
2013-1-21,66,51,36,-100,-100,-100,0,0,100,0.00,40.00,0,-999,0,0.00
2013-1-22,62,45,33,-100,-100,-100,0,0,100,0.00,40.00,0,-999,0,0.00
2013-1-23,69,54,38,-100,-100,-100,0,0,100,0.00,40.00,0,-999,0,0.00
2013-1-24,65,57,51,-100,-100,-100,0,0,100,0.00,40.00,0,-999,0,0.00
2013-1-25,73,62,52,-100,-100,-100,0,0,100,0.00,40.00,0,-999,0,0.00
2013-1-26,62,54,51,-100,-100,-100,0,0,100,0.00,40.00,0,-999,0,0.00
2013-1-27,69,57,47,-100,-100,-100,0,0,100,0.00,40.00,0,-999,0,0.00
2013-1-28,73,66,62,-100,-100,-100,0,0,100,0.00,40.00,0,-999,0,0.00
2013-1-29,70,67,64,-100,-100,-100,0,0,100,0.00,40.00,0,-999,0,0.00
2013-1-30,53,47,32,-100,-100,-100,0,0,100,0.00,40.00,0,-999,0,0.00
2013-1-31,60,51,41,-100,-100,-100,0,0,100,0.00,40.00,0,-999,0,0.00
2013-2-1,62,48,36,-100,-100,-100,0,0,100,0.00,40.00,0,-999,0,0.00
2013-2-2,65,55,39,-100,-100,-100,0,0,100,0.00,40.00,0,-999,0,0.00
2013-2-3,68,50,32,-100,-100,-100,0,0,100,0.00,40.00,0,-999,0,0.00
2013-2-4,57,50,41,-100,-100,-100,0,0,100,0.00,40.00,0,-999,0,0.00
2013-2-5,69,62,54,-100,-100,-100,0,0,100,0.00,40.00,0,-999,0,0.00
2013-2-6,58,57,54,-100,-100,-100,0,0,100,0.00,40.00,0,-999,0,0.00
2013-2-7,62,54,49,-100,-100,-100,0,0,100,0.00,40.00,0,-999,0,0.00
2013-2-8,58,53,47,-100,-100,-100,0,0,100,0.00,40.00,0,-999,0,0.00
2013-2-9,58,49,40,-100,-100,-100,0,0,100,0.00,40.00,0,-999,0,0.00
2013-2-10,62,58,52,-100,-100,-100,0,0,100,0.00,40.00,0,-999,0,0.00
2013-2-11,52,48,47,-100,-100,-100,0,0,100,0.00,40.00,0,-999,0,0.00
2013-2-12,51,48,47,-100,-100,-100,0,0,100,0.00,40.00,0,-999,0,0.00
2013-2-13,48,42,36,-100,-100,-100,0,0,100,0.00,40.00,0,-999,0,0.00
2013-2-14,61,40,26,-100,-100,-100,0,0,100,0.00,40.00,0,-999,0,0.00
2013-2-15,55,44,32,-100,-100,-100,0,0,100,0.00,40.00,0,-999,0,0.00
2013-2-16,51,36,25,-100,-100,-100,0,0,100,0.00,40.00,0,-999,0,0.00
2013-2-17,65,47,29,-100,-100,-100,0,0,100,0.00,40.00,0,-999,0,0.00
2013-2-18,63,56,47,-100,-100,-100,0,0,100,0.00,40.00,0,-999,0,0.00
2013-2-19,58,47,36,-100,-100,-100,0,0,100,0.00,40.00,0,-999,0,0.00
2013-2-20,48,46,41,-100,-100,-100,0,0,100,0.00,40.00,0,-999,0,0.00
2013-2-21,68,53,43,-100,-100,-100,0,0,100,0.00,40.00,0,-999,0,0.00
2013-2-22,51,46,41,-100,-100,-100,0,0,100,0.00,40.00,0,-999,0,0.00
2013-2-23,62,46,35,-100,-100,-100,0,0,100,0.00,40.00,0,-999,0,0.00
2013-2-24,66,46,33,-100,-100,-100,0,0,100,0.00,40.00,0,-999,0,0.00
2013-2-25,65,56,44,-100,-100,-100,0,0,100,0.00,40.00,0,-999,0,0.00
2013-2-26,55,46,39,-100,-100,-100,0,0,100,0.00,40.00,0,-999,0,0.00
2013-2-27,58,47,32,-100,-100,-100,0,0,100,0.00,40.00,0,-999,0,0.00
2013-2-28,52,40,32,-100,-100,-100,0,0,100,0.00,40.00,0,-999,0,0.00
2013-3-1,53,42,31,-100,-100,-100,0,0,100,0.00,40.00,0,-999,0,0.00
2013-3-2,45,36,30,-100,-100,-100,0,0,100,0.00,40.00,0,-999,0,0.00
2013-3-3,63,46,23,-100,-100,-100,0,0,100,0.00,40.00,0,-999,0,0.00
2013-3-4,73,55,46,-100,-100,-100,0,0,100,0.00,40.00,0,-999,0,0.00
2013-3-5,59,55,43,-100,-100,-100,0,0,100,0.00,40.00,0,-999,0,0.00
2013-3-6,60,46,33,-100,-100,-100,0,0,100,0.00,40.00,0,-999,0,0.00
2013-3-7,62,50,31,-100,-100,-100,0,0,100,0.00,40.00,0,-999,0,0.00
2013-3-8,67,55,40,-100,-100,-100,0,0,100,0.00,40.00,0,-999,0,0.00
2013-3-9,69,61,54,-100,-100,-100,0,0,100,0.00,40.00,0,-999,0,0.00
2013-3-10,60,58,50,-100,-100,-100,0,0,100,0.00,40.00,0,-999,0,0.00
2013-3-11,54,42,34,-100,-100,-100,0,0,100,0.00,40.00,0,-999,0,0.00
2013-3-12,63,48,28,-100,-100,-100,0,0,100,0.00,40.00,0,-999,0,0.00
2013-3-13,65,44,36,-100,-100,-100,0,0,100,0.00,40.00,0,-999,0,0.00
2013-3-14,70,53,35,-100,-100,-100,0,0,100,0.00,40.00,0,-999,0,0.00
2013-3-15,74,58,40,-100,-100,-100,0,0,100,0.00,40.00,0,-999,0,0.00
2013-3-16,76,63,52,-100,-100,-100,0,0,100,0.00,40.00,0,-999,0,0.00
2013-3-17,73,64,57,-100,-100,-100,0,0,100,0.00,40.00,0,-999,0,0.00
2013-3-18,77,65,60,-100,-100,-100,0,0,100,0.00,40.00,0,-999,0,0.00
2013-3-19,71,59,47,-100,-100,-100,0,0,100,0.00,40.00,0,-999,0,0.00
2013-3-20,65,52,43,-100,-100,-100,0,0,100,0.00,40.00,0,-999,0,0.00
2013-3-21,67,53,40,-100,-100,-100,0,0,100,0.00,40.00,0,-999,0,0.00
2013-3-22,80,62,56,-100,-100,-100,0,0,100,0.00,40.00,0,-999,0,0.00
2013-3-23,57,53,50,-100,-100,-100,0,0,100,0.00,40.00,0,-999,0,0.00
2013-3-24,54,48,40,-100,-100,-100,0,0,100,0.00,40.00,0,-999,0,0.00
2013-3-25,54,45,30,-100,-100,-100,0,0,100,0.00,40.00,0,-999,0,0.00
2013-3-26,54,38,26,-100,-100,-100,0,0,100,0.00,40.00,0,-999,0,0.00
2013-3-27,66,44,27,-100,-100,-100,0,0,100,0.00,40.00,0,-999,0,0.00
2013-3-28,65,56,45,-100,-100,-100,0,0,100,0.00,40.00,0,-999,0,0.00
2013-3-29,72,60,51,-100,-100,-100,0,0,100,0.00,40.00,0,-999,0,0.00
2013-3-30,73,62,55,-100,-100,-100,0,0,100,0.00,40.00,0,-999,0,0.00
2013-3-31,65,62,59,-100,-100,-100,0,0,100,0.00,40.00,0,-999,0,0.00
2013-4-1,76,60,51,-100,-100,-100,0,0,100,0.00,40.00,0,-999,0,0.00
2013-4-2,71,61,52,-100,-100,-100,0,0,100,0.00,40.00,0,-999,0,0.00
2013-4-3,58,46,43,-100,-100,-100,0,0,100,0.00,40.00,0,-999,0,0.00
2013-4-4,43,41,40,-100,-100,-100,0,0,100,0.00,40.00,0,-999,0,0.00
2013-4-5,68,51,36,-100,-100,-100,0,0,100,0.00,40.00,0,-999,0,0.00
2013-4-6,74,56,41,-100,-100,-100,0,0,100,0.00,40.00,0,-999,0,0.00
2013-4-7,73,62,53,-100,-100,-100,0,0,100,0.00,40.00,0,-999,0,0.00
2013-4-8,77,67,60,-100,-100,-100,0,0,100,0.00,40.00,0,-999,0,0.00
2013-4-9,75,68,63,-100,-100,-100,0,0,100,0.00,40.00,0,-999,0,0.00
2013-4-10,70,62,41,-100,-100,-100,0,0,100,0.00,40.00,0,-999,0,0.00
2013-4-11,62,47,37,-100,-100,-100,0,0,100,0.00,40.00,0,-999,0,0.00
2013-4-12,75,56,36,-100,-100,-100,0,0,100,0.00,40.00,0,-999,0,0.00
2013-4-13,76,55,41,-100,-100,-100,0,0,100,0.00,40.00,0,-999,0,0.00
2013-4-14,78,57,44,-100,-100,-100,0,0,100,0.00,40.00,0,-999,0,0.00
2013-4-15,82,68,62,-100,-100,-100,0,0,100,0.00,40.00,0,-999,0,0.00
2013-4-16,82,72,69,-100,-100,-100,0,0,100,0.00,40.00,0,-999,0,0.00
2013-4-17,80,72,68,-100,-100,-100,0,0,100,0.00,40.00,0,-999,0,0.00
2013-4-18,70,60,45,-100,-100,-100,0,0,100,0.00,40.00,0,-999,0,0.00
2013-4-19,58,43,36,-100,-100,-100,0,0,100,0.00,40.00,0,-999,0,0.00
2013-4-20,68,46,32,-100,-100,-100,0,0,100,0.00,40.00,0,-999,0,0.00
2013-4-21,73,53,39,-100,-100,-100,0,0,100,0.00,40.00,0,-999,0,0.00
2013-4-22,75,57,42,-100,-100,-100,0,0,100,0.00,40.00,0,-999,0,0.00
2013-4-23,77,64,54,-100,-100,-100,0,0,100,0.00,40.00,0,-999,0,0.00
2013-4-24,63,51,39,-100,-100,-100,0,0,100,0.00,40.00,0,-999,0,0.00
2013-4-25,70,55,48,-100,-100,-100,0,0,100,0.00,40.00,0,-999,0,0.00
2013-4-26,76,60,51,-100,-100,-100,0,0,100,0.00,40.00,0,-999,0,0.00
2013-4-27,79,69,63,-100,-100,-100,0,0,100,0.00,40.00,0,-999,0,0.00
2013-4-28,81,68,60,-100,-100,-100,0,0,100,0.00,40.00,0,-999,0,0.00
2013-4-29,80,66,52,-100,-100,-100,0,0,100,0.00,40.00,0,-999,0,0.00
2013-4-30,76,65,57,-100,-100,-100,0,0,100,0.00,40.00,0,-999,0,0.00
2013-5-1,76,66,62,-100,-100,-100,0,0,100,0.00,40.00,0,-999,0,0.00
2013-5-2,65,59,43,-100,-100,-100,0,0,100,0.00,40.00,0,-999,0,0.00
2013-5-3,56,44,39,-100,-100,-100,0,0,100,0.00,40.00,0,-999,0,0.00
2013-5-4,72,52,32,-100,-100,-100,0,0,100,0.00,40.00,0,-999,0,0.00
2013-5-5,62,50,40,-100,-100,-100,0,0,100,0.00,40.00,0,-999,0,0.00
2013-5-6,74,57,38,-100,-100,-100,0,0,100,0.00,40.00,0,-999,0,0.00
2013-5-7,81,63,52,-100,-100,-100,0,0,100,0.00,40.00,0,-999,0,0.00
2013-5-8,80,68,52,-100,-100,-100,0,0,100,0.00,40.00,0,-999,0,0.00
2013-5-9,69,65,61,-100,-100,-100,0,0,100,0.00,40.00,0,-999,0,0.00
2013-5-10,76,66,62,-100,-100,-100,0,0,100,0.00,40.00,0,-999,0,0.00
2013-5-11,75,66,57,-100,-100,-100,0,0,100,0.00,40.00,0,-999,0,0.00
2013-5-12,73,63,50,-100,-100,-100,0,0,100,0.00,40.00,0,-999,0,0.00
2013-5-13,79,61,43,-100,-100,-100,0,0,100,0.00,40.00,0,-999,0,0.00
2013-5-14,80,66,49,-100,-100,-100,0,0,100,0.00,40.00,0,-999,0,0.00
2013-5-15,68,63,58,-100,-100,-100,0,0,100,0.00,40.00,0,-999,0,0.00
2013-5-16,77,69,62,-100,-100,-100,0,0,100,0.00,40.00,0,-999,0,0.00
2013-5-17,84,74,69,-100,-100,-100,0,0,100,0.00,40.00,0,-999,0,0.00
2013-5-18,87,75,68,-100,-100,-100,0,0,100,0.00,40.00,0,-999,0,0.00
2013-5-19,86,74,67,-100,-100,-100,0,0,100,0.00,40.00,0,-999,0,0.00
2013-5-20,83,73,69,-100,-100,-100,0,0,100,0.00,40.00,0,-999,0,0.00
2013-5-21,83,74,62,-100,-100,-100,0,0,100,0.00,40.00,0,-999,0,0.00
2013-5-22,80,66,62,-100,-100,-100,0,0,100,0.00,40.00,0,-999,0,0.00
2013-5-23,84,74,65,-100,-100,-100,0,0,100,0.00,40.00,0,-999,0,0.00
2013-5-24,84,73,65,-100,-100,-100,0,0,100,0.00,40.00,0,-999,0,0.00
2013-5-25,84,73,65,-100,-100,-100,0,0,100,0.00,40.00,0,-999,0,0.00
2013-5-26,81,72,66,-100,-100,-100,0,0,100,0.00,40.00,0,-999,0,0.00
2013-5-27,83,73,65,-100,-100,-100,0,0,100,0.00,40.00,0,-999,0,0.00
2013-5-28,83,76,67,-100,-100,-100,0,0,100,0.00,40.00,0,-999,0,0.00
2013-5-29,80,74,68,-100,-100,-100,0,0,100,0.00,40.00,0,-999,0,0.00
2013-5-30,82,75,69,-100,-100,-100,0,0,100,0.00,40.00,0,-999,0,0.00
2013-5-31,87,78,73,-100,-100,-100,0,0,100,0.00,40.00,0,-999,0,0.00
2013-6-1,88,79,73,-100,-100,-100,0,0,100,0.00,40.00,0,-999,0,0.00
2013-6-2,77,68,63,-100,-100,-100,0,0,100,0.00,40.00,0,-999,0,0.00
2013-6-3,84,68,58,-100,-100,-100,0,0,100,0.00,40.00,0,-999,0,0.00
2013-6-4,87,74,62,-100,-100,-100,0,0,100,0.00,40.00,0,-999,0,0.00
2013-6-5,88,75,65,-100,-100,-100,0,0,100,0.00,40.00,0,-999,0,0.00
2013-6-6,74,70,65,-100,-100,-100,0,0,100,0.00,40.00,0,-999,0,0.00
2013-6-7,79,69,62,-100,-100,-100,0,0,100,0.00,40.00,0,-999,0,0.00
2013-6-8,84,73,61,-100,-100,-100,0,0,100,0.00,40.00,0,-999,0,0.00
2013-6-9,80,72,65,-100,-100,-100,0,0,100,0.00,40.00,0,-999,0,0.00
2013-6-10,88,75,63,-100,-100,-100,0,0,100,0.00,40.00,0,-999,0,0.00
2013-6-11,87,76,68,-100,-100,-100,0,0,100,0.00,40.00,0,-999,0,0.00
2013-6-12,91,77,69,-100,-100,-100,0,0,100,0.00,40.00,0,-999,0,0.00
2013-6-13,93,81,69,-100,-100,-100,0,0,100,0.00,40.00,0,-999,0,0.00
2013-6-14,94,84,70,-100,-100,-100,0,0,100,0.00,40.00,0,-999,0,0.00
2013-6-15,91,81,70,-100,-100,-100,0,0,100,0.00,40.00,0,-999,0,0.00
2013-6-16,90,80,72,-100,-100,-100,0,0,100,0.00,40.00,0,-999,0,0.00
2013-6-17,87,78,73,-100,-100,-100,0,0,100,0.00,40.00,0,-999,0,0.00
2013-6-18,81,75,69,-100,-100,-100,0,0,100,0.00,40.00,0,-999,0,0.00
2013-6-19,83,75,67,-100,-100,-100,0,0,100,0.00,40.00,0,-999,0,0.00
2013-6-20,88,74,69,-100,-100,-100,0,0,100,0.00,40.00,0,-999,0,0.00
2013-6-22,90,83,77,-100,-100,-100,0,0,100,0.00,40.00,0,-999,0,0.00
2013-6-23,87,78,68,-100,-100,-100,0,0,100,0.00,40.00,0,-999,0,0.00
2013-6-24,90,80,70,-100,-100,-100,0,0,100,0.00,40.00,0,-999,0,0.00
2013-6-25,91,77,71,-100,-100,-100,0,0,100,0.00,40.00,0,-999,0,0.00
2013-6-26,91,82,73,-100,-100,-100,0,0,100,0.00,40.00,0,-999,0,0.00
2013-6-27,94,81,73,-100,-100,-100,0,0,100,0.00,40.00,0,-999,0,0.00
2013-6-28,94,82,71,-100,-100,-100,0,0,100,0.00,40.00,0,-999,0,0.00
2013-6-29,94,82,69,-100,-100,-100,0,0,100,0.00,40.00,0,-999,0,0.00
2013-6-30,87,71,61,-100,-100,-100,0,0,100,0.00,40.00,0,-999,0,0.00
2013-7-1,84,73,62,-100,-100,-100,0,0,100,0.00,40.00,0,-999,0,0.00
2013-7-2,87,72,60,-100,-100,-100,0,0,100,0.00,40.00,0,-999,0,0.00
2013-7-3,88,68,60,-100,-100,-100,0,0,100,0.00,40.00,0,-999,0,0.00
2013-7-4,90,73,62,-100,-100,-100,0,0,100,0.00,40.00,0,-999,0,0.00
2013-7-5,92,72,61,-100,-100,-100,0,0,100,0.00,40.00,0,-999,0,0.00
2013-7-6,92,72,65,-100,-100,-100,0,0,100,0.00,40.00,0,-999,0,0.00
2013-7-7,89,74,67,-100,-100,-100,0,0,100,0.00,40.00,0,-999,0,0.00
2013-7-8,85,74,68,-100,-100,-100,0,0,100,0.00,40.00,0,-999,0,0.00
2013-7-9,94,80,67,-100,-100,-100,0,0,100,0.00,40.00,0,-999,0,0.00
2013-7-10,93,82,69,-100,-100,-100,0,0,100,0.00,40.00,0,-999,0,0.00
2013-7-11,94,75,73,-100,-100,-100,0,0,100,0.00,40.00,0,-999,0,0.00
2013-7-12,98,85,68,-100,-100,-100,0,0,100,0.00,40.00,0,-999,0,0.00
2013-7-13,92,82,72,-100,-100,-100,0,0,100,0.00,40.00,0,-999,0,0.00
2013-7-14,81,74,66,-100,-100,-100,0,0,100,0.00,40.00,0,-999,0,0.00
2013-7-15,86,73,67,-100,-100,-100,0,0,100,0.00,40.00,0,-999,0,0.00
2013-7-16,89,74,67,-100,-100,-100,0,0,100,0.00,40.00,0,-999,0,0.00
2013-7-17,86,75,69,-100,-100,-100,0,0,100,0.00,40.00,0,-999,0,0.00
2013-7-18,89,78,68,-100,-100,-100,0,0,100,0.00,40.00,0,-999,0,0.00
2013-7-19,83,73,70,-100,-100,-100,0,0,100,0.00,40.00,0,-999,0,0.00
2013-7-20,87,74,66,-100,-100,-100,0,0,100,0.00,40.00,0,-999,0,0.00
2013-7-21,86,73,68,-100,-100,-100,0,0,100,0.00,40.00,0,-999,0,0.00
2013-7-22,90,80,72,-100,-100,-100,0,0,100,0.00,40.00,0,-999,0,0.00
2013-7-24,86,80,74,-100,-100,-100,0,0,100,0.00,40.00,0,-999,0,0.00
2013-7-25,90,76,69,-100,-100,-100,0,0,100,0.00,40.00,0,-999,0,0.00
2013-7-26,87,83,79,-100,-100,-100,0,0,100,0.00,40.00,0,-999,0,0.00
2013-7-27,81,76,69,-100,-100,-100,0,0,100,0.00,40.00,0,-999,0,0.00
2013-7-28,91,75,64,-100,-100,-100,0,0,100,0.00,40.00,0,-999,0,0.00
2013-7-29,91,80,72,-100,-100,-100,0,0,100,0.00,40.00,0,-999,0,0.00
2013-7-30,91,80,69,-100,-100,-100,0,0,100,0.00,40.00,0,-999,0,0.00
2013-7-31,92,78,71,-100,-100,-100,0,0,100,0.00,40.00,0,-999,0,0.00
2013-8-1,95,82,73,-100,-100,-100,0,0,100,0.00,40.00,0,-999,0,0.00
2013-8-2,96,83,70,-100,-100,-100,0,0,100,0.00,40.00,0,-999,0,0.00
2013-8-3,94,82,71,-100,-100,-100,0,0,100,0.00,40.00,0,-999,0,0.00
2013-8-4,95,82,71,-100,-100,-100,0,0,100,0.00,40.00,0,-999,0,0.00
2013-8-5,95,81,73,-100,-100,-100,0,0,100,0.00,40.00,0,-999,0,0.00
2013-8-6,97,81,72,-100,-100,-100,0,0,100,0.00,40.00,0,-999,0,0.00
2013-8-7,97,85,73,-100,-100,-100,0,0,100,0.00,40.00,0,-999,0,0.00
2013-8-8,97,83,70,-100,-100,-100,0,0,100,0.00,40.00,0,-999,0,0.00
2013-8-9,98,81,70,-100,-100,-100,0,0,100,0.00,40.00,0,-999,0,0.00
2013-8-10,96,81,73,-100,-100,-100,0,0,100,0.00,40.00,0,-999,0,0.00
2013-8-11,94,81,71,-100,-100,-100,0,0,100,0.00,40.00,0,-999,0,0.00
2013-8-12,92,78,70,-100,-100,-100,0,0,100,0.00,40.00,0,-999,0,0.00
2013-8-13,95,83,73,-100,-100,-100,0,0,100,0.00,40.00,0,-999,0,0.00
2013-8-14,89,78,73,-100,-100,-100,0,0,100,0.00,40.00,0,-999,0,0.00
2013-8-15,88,75,66,-100,-100,-100,0,0,100,0.00,40.00,0,-999,0,0.00
2013-8-16,85,71,61,-100,-100,-100,0,0,100,0.00,40.00,0,-999,0,0.00
2013-8-17,87,75,62,-100,-100,-100,0,0,100,0.00,40.00,0,-999,0,0.00
2013-8-18,89,73,63,-100,-100,-100,0,0,100,0.00,40.00,0,-999,0,0.00
2013-8-19,91,74,66,-100,-100,-100,0,0,100,0.00,40.00,0,-999,0,0.00
2013-8-20,94,80,65,-100,-100,-100,0,0,100,0.00,40.00,0,-999,0,0.00
2013-8-21,93,79,66,-100,-100,-100,0,0,100,0.00,40.00,0,-999,0,0.00
2013-8-22,91,78,70,-100,-100,-100,0,0,100,0.00,40.00,0,-999,0,0.00
2013-8-23,98,82,69,-100,-100,-100,0,0,100,0.00,40.00,0,-999,0,0.00
2013-8-24,96,84,71,-100,-100,-100,0,0,100,0.00,40.00,0,-999,0,0.00
2013-8-25,91,80,69,-100,-100,-100,0,0,100,0.00,40.00,0,-999,0,0.00
2013-8-26,87,76,69,-100,-100,-100,0,0,100,0.00,40.00,0,-999,0,0.00
2013-8-27,87,72,68,-100,-100,-100,0,0,100,0.00,40.00,0,-999,0,0.00
2013-8-28,94,90,77,-100,-100,-100,0,0,100,0.00,40.00,0,-999,0,0.00
2013-8-29,95,84,73,-100,-100,-100,0,0,100,0.00,40.00,0,-999,0,0.00
2013-8-30,99,83,70,-100,-100,-100,0,0,100,0.00,40.00,0,-999,0,0.00
2013-8-31,96,81,70,-100,-100,-100,0,0,100,0.00,40.00,0,-999,0,0.00
2013-9-1,98,81,71,-100,-100,-100,0,0,100,0.00,40.00,0,-999,0,0.00
2013-9-2,91,81,71,-100,-100,-100,0,0,100,0.00,40.00,0,-999,0,0.00
2013-9-3,89,75,69,-100,-100,-100,0,0,100,0.00,40.00,0,-999,0,0.00
2013-9-4,91,78,69,-100,-100,-100,0,0,100,0.00,40.00,0,-999,0,0.00
2013-9-5,94,78,68,-100,-100,-100,0,0,100,0.00,40.00,0,-999,0,0.00
2013-9-6,94,82,69,-100,-100,-100,0,0,100,0.00,40.00,0,-999,0,0.00
2013-9-7,91,79,67,-100,-100,-100,0,0,100,0.00,40.00,0,-999,0,0.00
2013-9-8,94,74,65,-100,-100,-100,0,0,100,0.00,40.00,0,-999,0,0.00
2013-9-9,94,76,65,-100,-100,-100,0,0,100,0.00,40.00,0,-999,0,0.00
2013-9-10,89,76,67,-100,-100,-100,0,0,100,0.00,40.00,0,-999,0,0.00
2013-9-11,93,77,69,-100,-100,-100,0,0,100,0.00,40.00,0,-999,0,0.00
2013-9-12,89,77,66,-100,-100,-100,0,0,100,0.00,40.00,0,-999,0,0.00
2013-9-13,95,77,65,-100,-100,-100,0,0,100,0.00,40.00,0,-999,0,0.00
2013-9-14,89,77,68,-100,-100,-100,0,0,100,0.00,40.00,0,-999,0,0.00
2013-9-15,92,76,65,-100,-100,-100,0,0,100,0.00,40.00,0,-999,0,0.00
2013-9-16,95,81,67,-100,-100,-100,0,0,100,0.00,40.00,0,-999,0,0.00
2013-9-17,91,79,69,-100,-100,-100,0,0,100,0.00,40.00,0,-999,0,0.00
2013-9-18,77,72,68,-100,-100,-100,0,0,100,0.00,40.00,0,-999,0,0.00
2013-9-19,91,77,69,-100,-100,-100,0,0,100,0.00,40.00,0,-999,0,0.00
2013-9-20,73,71,67,-100,-100,-100,0,0,100,0.00,40.00,0,-999,0,0.00
2013-9-21,80,70,65,-100,-100,-100,0,0,100,0.00,40.00,0,-999,0,0.00
2013-9-22,80,64,54,-100,-100,-100,0,0,100,0.00,40.00,0,-999,0,0.00
2013-9-23,87,66,53,-100,-100,-100,0,0,100,0.00,40.00,0,-999,0,0.00
2013-9-24,89,76,62,-100,-100,-100,0,0,100,0.00,40.00,0,-999,0,0.00
2013-9-25,87,68,54,-100,-100,-100,0,0,100,0.00,40.00,0,-999,0,0.00
2013-9-26,89,70,55,-100,-100,-100,0,0,100,0.00,40.00,0,-999,0,0.00
2013-9-27,87,72,59,-100,-100,-100,0,0,100,0.00,40.00,0,-999,0,0.00
2013-9-28,84,77,64,-100,-100,-100,0,0,100,0.00,40.00,0,-999,0,0.00
2013-9-29,75,72,69,-100,-100,-100,0,0,100,0.00,40.00,0,-999,0,0.00
2013-9-30,80,71,69,-100,-100,-100,0,0,100,0.00,40.00,0,-999,0,0.00
2013-10-1,75,73,70,-100,-100,-100,0,0,100,0.00,40.00,0,-999,0,0.00
2013-10-2,85,73,69,-100,-100,-100,0,0,100,0.00,40.00,0,-999,0,0.00
2013-10-3,83,75,68,-100,-100,-100,0,0,100,0.00,40.00,0,-999,0,0.00
2013-10-4,85,76,65,-100,-100,-100,0,0,100,0.00,40.00,0,-999,0,0.00
2013-10-5,86,75,64,-100,-100,-100,0,0,100,0.00,40.00,0,-999,0,0.00
2013-10-6,73,58,51,-100,-100,-100,0,0,100,0.00,40.00,0,-999,0,0.00
2013-10-7,75,64,43,-100,-100,-100,0,0,100,0.00,40.00,0,-999,0,0.00
2013-10-8,75,58,45,-100,-100,-100,0,0,100,0.00,40.00,0,-999,0,0.00
2013-10-9,80,59,47,-100,-100,-100,0,0,100,0.00,40.00,0,-999,0,0.00
2013-10-10,80,65,50,-100,-100,-100,0,0,100,0.00,40.00,0,-999,0,0.00
2013-10-11,83,69,58,-100,-100,-100,0,0,100,0.00,40.00,0,-999,0,0.00
2013-10-12,80,71,65,-100,-100,-100,0,0,100,0.00,40.00,0,-999,0,0.00
2013-10-13,73,68,65,-100,-100,-100,0,0,100,0.00,40.00,0,-999,0,0.00
2013-10-14,79,70,66,-100,-100,-100,0,0,100,0.00,40.00,0,-999,0,0.00
2013-10-15,82,71,67,-100,-100,-100,0,0,100,0.00,40.00,0,-999,0,0.00
2013-10-16,65,61,56,-100,-100,-100,0,0,100,0.00,40.00,0,-999,0,0.00
2013-10-17,69,57,49,-100,-100,-100,0,0,100,0.00,40.00,0,-999,0,0.00
2013-10-18,67,55,47,-100,-100,-100,0,0,100,0.00,40.00,0,-999,0,0.00
2013-10-19,62,54,43,-100,-100,-100,0,0,100,0.00,40.00,0,-999,0,0.00
2013-10-20,68,49,36,-100,-100,-100,0,0,100,0.00,40.00,0,-999,0,0.00
2013-10-21,76,57,45,-100,-100,-100,0,0,100,0.00,40.00,0,-999,0,0.00
2013-10-22,68,58,47,-100,-100,-100,0,0,100,0.00,40.00,0,-999,0,0.00
2013-10-23,77,56,43,-100,-100,-100,0,0,100,0.00,40.00,0,-999,0,0.00
2013-10-24,78,60,44,-100,-100,-100,0,0,100,0.00,40.00,0,-999,0,0.00
2013-10-25,66,55,47,-100,-100,-100,0,0,100,0.00,40.00,0,-999,0,0.00
2013-10-26,76,56,41,-100,-100,-100,0,0,100,0.00,40.00,0,-999,0,0.00
2013-10-27,69,60,54,-100,-100,-100,0,0,100,0.00,40.00,0,-999,0,0.00
2013-10-28,74,62,53,-100,-100,-100,0,0,100,0.00,40.00,0,-999,0,0.00
2013-10-29,78,68,62,-100,-100,-100,0,0,100,0.00,40.00,0,-999,0,0.00
2013-10-30,68,65,62,-100,-100,-100,0,0,100,0.00,40.00,0,-999,0,0.00
2013-10-31,71,65,49,-100,-100,-100,0,0,100,0.00,40.00,0,-999,0,0.00
2013-11-1,73,55,42,-100,-100,-100,0,0,100,0.00,40.00,0,-999,0,0.00
2013-11-2,64,54,43,-100,-100,-100,0,0,100,0.00,40.00,0,-999,0,0.00
2013-11-3,62,47,36,-100,-100,-100,0,0,100,0.00,40.00,0,-999,0,0.00
2013-11-4,65,56,45,-100,-100,-100,0,0,100,0.00,40.00,0,-999,0,0.00
2013-11-5,72,65,58,-100,-100,-100,0,0,100,0.00,40.00,0,-999,0,0.00
2013-11-6,67,59,43,-100,-100,-100,0,0,100,0.00,40.00,0,-999,0,0.00
2013-11-7,58,45,36,-100,-100,-100,0,0,100,0.00,40.00,0,-999,0,0.00
2013-11-8,60,49,37,-100,-100,-100,0,0,100,0.00,40.00,0,-999,0,0.00
2013-11-9,54,50,47,-100,-100,-100,0,0,100,0.00,40.00,0,-999,0,0.00
2013-11-10,67,51,45,-100,-100,-100,0,0,100,0.00,40.00,0,-999,0,0.00
2013-11-11,69,50,40,-100,-100,-100,0,0,100,0.00,40.00,0,-999,0,0.00
2013-11-12,58,46,36,-100,-100,-100,0,0,100,0.00,40.00,0,-999,0,0.00
2013-11-13,49,35,27,-100,-100,-100,0,0,100,0.00,40.00,0,-999,0,0.00
2013-11-14,56,38,24,-100,-100,-100,0,0,100,0.00,40.00,0,-999,0,0.00
2013-11-15,69,54,40,-100,-100,-100,0,0,100,0.00,40.00,0,-999,0,0.00
2013-11-16,73,63,51,-100,-100,-100,0,0,100,0.00,40.00,0,-999,0,0.00
2013-11-17,80,70,62,-100,-100,-100,0,0,100,0.00,40.00,0,-999,0,0.00
2013-11-18,72,61,54,-100,-100,-100,0,0,100,0.00,40.00,0,-999,0,0.00
2013-11-19,64,53,42,-100,-100,-100,0,0,100,0.00,40.00,0,-999,0,0.00
2013-11-20,66,48,36,-100,-100,-100,0,0,100,0.00,40.00,0,-999,0,0.00
2013-11-21,69,62,52,-100,-100,-100,0,0,100,0.00,40.00,0,-999,0,0.00
2013-11-22,67,50,39,-100,-100,-100,0,0,100,0.00,40.00,0,-999,0,0.00
2013-11-23,43,40,39,-100,-100,-100,0,0,100,0.00,40.00,0,-999,0,0.00
2013-11-24,41,36,32,-100,-100,-100,0,0,100,0.00,40.00,0,-999,0,0.00
2013-11-25,36,33,32,-100,-100,-100,0,0,100,0.00,40.00,0,-999,0,0.00
2013-11-26,38,34,32,-100,-100,-100,0,0,100,0.00,40.00,0,-999,0,0.00
2013-11-27,43,32,25,-100,-100,-100,0,0,100,0.00,40.00,0,-999,0,0.00
2013-11-28,48,32,23,-100,-100,-100,0,0,100,0.00,40.00,0,-999,0,0.00
2013-11-29,57,34,23,-100,-100,-100,0,0,100,0.00,40.00,0,-999,0,0.00
2013-11-30,57,43,28,-100,-100,-100,0,0,100,0.00,40.00,0,-999,0,0.00
2013-12-1,62,55,48,-100,-100,-100,0,0,100,0.00,40.00,0,-999,0,0.00
2013-12-2,68,57,49,-100,-100,-100,0,0,100,0.00,40.00,0,-999,0,0.00
2013-12-3,76,59,47,-100,-100,-100,0,0,100,0.00,40.00,0,-999,0,0.00
2013-12-4,75,66,58,-100,-100,-100,0,0,100,0.00,40.00,0,-999,0,0.00
2013-12-5,67,48,32,-100,-100,-100,0,0,100,0.00,40.00,0,-999,0,0.00
2013-12-6,36,33,28,-100,-100,-100,0,0,100,0.00,40.00,0,-999,0,0.00
2013-12-7,31,29,28,-100,-100,-100,0,0,100,0.00,40.00,0,-999,0,0.00
2013-12-8,37,33,29,-100,-100,-100,0,0,100,0.00,40.00,0,-999,0,0.00
2013-12-9,37,34,32,-100,-100,-100,0,0,100,0.00,40.00,0,-999,0,0.00
2013-12-10,41,31,24,-100,-100,-100,0,0,100,0.00,40.00,0,-999,0,0.00
2013-12-11,50,34,24,-100,-100,-100,0,0,100,0.00,40.00,0,-999,0,0.00
2013-12-12,50,34,29,-100,-100,-100,0,0,100,0.00,40.00,0,-999,0,0.00
2013-12-13,43,38,30,-100,-100,-100,0,0,100,0.00,40.00,0,-999,0,0.00
2013-12-14,47,42,36,-100,-100,-100,0,0,100,0.00,40.00,0,-999,0,0.00
2013-12-15,48,33,26,-100,-100,-100,0,0,100,0.00,40.00,0,-999,0,0.00
2013-12-16,58,38,25,-100,-100,-100,0,0,100,0.00,40.00,0,-999,0,0.00
2013-12-17,63,46,29,-100,-100,-100,0,0,100,0.00,40.00,0,-999,0,0.00
2013-12-18,65,48,30,-100,-100,-100,0,0,100,0.00,40.00,0,-999,0,0.00
2013-12-19,65,60,44,-100,-100,-100,0,0,100,0.00,40.00,0,-999,0,0.00
2013-12-20,71,67,64,-100,-100,-100,0,0,100,0.00,40.00,0,-999,0,0.00
2013-12-21,67,62,52,-100,-100,-100,0,0,100,0.00,40.00,0,-999,0,0.00
2013-12-22,52,45,29,-100,-100,-100,0,0,100,0.00,40.00,0,-999,0,0.00
2013-12-23,45,32,26,-100,-100,-100,0,0,100,0.00,40.00,0,-999,0,0.00
2013-12-24,48,32,22,-100,-100,-100,0,0,100,0.00,40.00,0,-999,0,0.00
2013-12-25,54,35,25,-100,-100,-100,0,0,100,0.00,40.00,0,-999,0,0.00
2013-12-26,56,42,32,-100,-100,-100,0,0,100,0.00,40.00,0,-999,0,0.00
2013-12-27,51,39,33,-100,-100,-100,0,0,100,0.00,40.00,0,-999,0,0.00
2013-12-28,51,44,39,-100,-100,-100,0,0,100,0.00,40.00,0,-999,0,0.00
2013-12-29,54,41,30,-100,-100,-100,0,0,100,0.00,40.00,0,-999,0,0.00
2013-12-30,37,35,31,-100,-100,-100,0,0,100,0.00,40.00,0,-999,0,0.00
2013-12-31,43,37,30,-100,-100,-100,0,0,100,0.00,40.00,0,-999,0,0.00
2014-1-1,57,42,29,-100,-100,-100,0,0,100,0.00,40.00,0,-999,0,0.00
2014-1-2,54,35,27,-100,-100,-100,0,0,100,0.00,40.00,0,-999,0,0.00